Temp_Advection
nan nan nan nan nan nan nan nan nan nan nan nan nan nan nan nan nan nan nan nan nan nan nan nan nan nan nan nan nan nan nan nan nan nan nan nan nan nan nan nan nan nan nan nan nan nan nan
nan 0 0 0 0 -0 0 1 0 -0 -0 -0 -0 0 0 -0 -0 -0 -0 -0 0 -0 -0 -0 0 -0 0 -0 0 -0 -0 -0 0 0 0 -0 0 0 -0 -0 -0 0 0 1 0 0 nan
nan 0 0 0 0 -0 0 0 1 -0 -0 -0 -0 -0 0 0 -0 -0 -0 0 -0 -0 -0 0 0 0 0 -0 -0 -0 -0 0 0 0 0 0 0 0 1 0 0 -0 -0 0 -0 0 nan
nan 0 0 0 0 0 0 1 1 1 -0 0 -0 -0 0 0 -0 -0 -0 0 -0 -0 0 -0 -0 0 -0 -0 -0 -0 0 -0 -0 0 -0 -0 -0 0 0 0 0 0 -0 -0 0 -0 nan
nan 0 0 0 0 0 0 0 1 1 0 -0 0 -0 -0 0 -0 -0 -0 -0 -0 -0 0 -0 -0 0 0 0 -0 -0 -0 0 0 -0 -0 -0 0 -0 0 -0 0 0 0 -1 0 0 nan
nan 0 0 0 0 0 0 -0 1 1 0 -0 -0 0 -0 0 -0 -0 -0 -0 -0 0 0 -0 -0 0 0 -0 0 -0 -0 0 0 -0 -0 -0 -0 -0 -0 -0 -1 -0 0 0 -0 0 nan
nan 0 0 0 0 0 0 -0 0 1 1 0 -0 0 0 0 0 -0 -0 0 -0 -0 -0 0 0 -0 -0 -0 0 0 -0 0 -0 -0 -0 -0 0 -0 0 -0 -0 -1 -0 -0 0 -0 nan
nan 0 0 0 0 0 0 0 0 1 1 0 0 0 0 0 0 -0 -0 -0 -0 -0 -0 0 -0 -0 -0 -0 0 0 -0 0 0 -0 0 -0 -0 -1 0 0 0 0 -0 -0 -0 -0 nan
nan 0 0 0 0 1 0 0 0 1 1 0 0 0 0 0 -0 -0 0 -0 0 0 -0 -0 0 0 -0 0 0 0 -0 0 0 -0 -0 0 0 0 0 0 0 1 -0 -0 0 -0 nan
nan 0 -0 0 0 1 0 0 0 1 1 1 0 0 0 0 -0 0 0 0 0 0 -0 -0 -0 -0 0 -0 -0 0 -0 -0 0 0 -0 0 0 1 0 0 -0 0 0 0 0 -0 nan
nan 0 -0 0 0 0 0 0 0 1 1 1 1 0 0 -0 -0 -0 0 0 0 0 0 -0 -0 0 0 0 0 -0 -0 0 -0 0 -0 -0 -0 0 -1 0 0 -0 0 0 0 0 nan
nan 0 -0 -0 0 0 0 0 0 0 1 0 0 0 -0 -0 -0 -0 0 0 0 -0 -0 -0 0 0 0 0 0 0 -0 -0 0 0 -0 0 -0 -0 0 0 0 0 -0 0 0 0 nan
nan 0 0 -0 0 0 0 0 0 0 0 0 -0 -0 -0 -0 -0 -0 -0 0 -0 0 -0 -0 0 0 0 0 -0 0 0 0 -0 -0 -0 -0 0 -0 -0 0 0 -0 -1 -0 0 -0 nan
nan 0 0 0 -0 0 0 0 0 0 0 -0 -0 -0 -0 -0 -0 -0 0 -0 0 -0 -0 -0 -0 0 0 0 0 -0 -0 0 0 -0 0 -0 -0 0 -0 0 0 0 0 0 0 0 nan
nan 0 0 0 -0 0 0 0 0 0 0 -0 -0 -0 0 -0 -0 0 -0 0 0 0 -0 -0 -1 -0 -0 -0 -0 -0 -0 -0 0 0 0 -0 -0 -0 -0 0 0 0 0 -0 -0 0 nan
nan 0 0 0 -0 -0 0 0 0 0 0 0 -0 -0 -0 0 0 0 -0 0 -0 -0 -0 -0 -0 0 -0 -0 -0 -0 -0 -0 -0 -0 -0 0 -0 -0 0 -0 0 -0 -0 -0 0 -0 nan
nan 1 0 0 0 -0 -0 0 0 0 0 -0 -0 -0 -0 0 -0 0 0 -0 -0 -0 -0 -0 0 -0 -0 0 -0 -0 -0 -0 -0 -0 -0 -0 -0 -0 0 -0 -0 0 0 -0 -0 -0 nan
nan 0 0 0 0 -0 -0 0 0 0 0 -0 -0 0 -0 0 -0 -0 -0 -0 -0 -0 -0 -0 -0 0 -0 -0 -0 -0 -0 -0 -0 -0 -0 -0 -0 -0 0 0 -0 0 -0 -0 0 0 nan
nan 1 0 0 0 -0 -0 0 0 0 0 -0 -0 -0 0 0 -0 -0 0 -0 -0 0 -0 -0 -0 -0 0 -0 -0 0 -0 -0 -0 -0 0 -0 -0 -0 -0 -0 -0 -0 0 0 0 -0 nan
nan 0 0 0 0 0 0 0 0 0 0 -0 -0 -0 -0 -0 -0 -0 0 0 -0 0 0 -0 0 0 0 -0 -0 -0 -0 -0 -0 -0 0 -0 0 -0 -0 -0 -0 0 0 0 1 -0 nan
nan 0 0 0 0 0 0 0 0 0 0 0 0 -0 0 0 0 0 0 0 0 -0 -0 0 0 -0 -0 0 -0 -0 -0 -0 -0 -0 0 -0 -0 -0 -0 -0 0 -0 -0 0 -0 -1 nan
nan 1 0 0 0 -0 0 0 0 0 -0 -0 -0 -0 -0 0 0 -0 -0 0 0 -0 -0 0 0 0 -0 -0 -0 0 0 0 -0 -0 -0 -0 -0 -0 -0 0 0 -0 -0 -0 -1 -0 nan
nan 1 0 0 0 0 0 0 0 -0 -0 -0 -0 -0 -0 -0 0 0 0 0 0 -0 0 -0 -0 0 -0 -0 -0 -0 -0 0 0 0 0 -0 -0 -0 -0 0 -0 -0 -1 -0 -0 -0 nan
nan 1 0 -0 0 -0 0 0 0 0 -0 -0 -0 -1 -0 -0 0 0 0 0 0 -0 -0 -0 -0 -0 -0 -0 -0 0 0 0 0 -0 0 0 -0 -0 0 -0 -0 0 -0 -0 -0 -0 nan
nan 0 0 0 0 0 0 0 0 0 0 -0 -0 -0 -0 -0 -0 0 0 0 0 0 -0 -0 -0 -0 -0 0 -0 -0 -0 -0 -0 0 0 -0 0 -0 0 -0 -0 0 0 0 0 -0 nan
nan 0 -0 0 0 0 0 0 0 0 0 -0 -0 -0 -0 -0 0 -0 0 0 0 0 0 0 -0 -0 -0 -0 0 0 0 -0 -0 -0 -0 0 -0 0 -0 -0 -0 -0 -0 0 -0 -0 nan
nan 0 0 0 0 1 0 0 0 0 0 -0 -0 -0 -0 -1 0 0 0 -0 0 0 0 -0 -0 -0 0 0 0 -0 0 -0 -0 0 -0 -0 -0 0 -0 -0 -0 0 0 -0 -0 -0 nan
nan 1 0 0 0 1 0 0 0 0 0 -0 -0 0 -0 -1 -0 0 -0 0 0 0 0 -0 0 0 -0 0 0 0 0 0 0 -0 0 -0 -0 -0 -0 -0 -0 0 0 -0 -0 0 nan
nan nan nan nan nan nan nan nan nan nan nan nan nan nan nan nan nan nan nan nan nan nan nan nan nan nan nan nan nan nan nan nan nan nan nan nan nan nan nan nan nan nan nan nan nan nan nan
Wind_Speed
16 18 18 17 18 20 19 16 15 16 17 14 17 19 17 13 10 13 11 9 7 6 5 4 3 1 1 3 4 5 7 9 15 21 21 15 20 22 16 18 17 15 18 16 11 8 9
17 17 18 18 18 20 20 19 16 19 16 15 16 19 19 14 10 8 7 9 7 4 4 4 4 3 1 1 3 4 3 6 12 19 22 14 17 17 18 15 17 17 6 23 13 7 4
16 18 19 19 18 19 21 18 17 18 17 17 18 18 18 16 9 9 5 5 7 3 2 2 4 3 1 1 5 5 2 1 3 14 11 8 12 11 14 11 10 15 7 8 14 12 6
17 17 19 19 19 18 20 20 19 18 18 18 18 18 17 19 9 10 5 6 7 4 2 2 3 3 1 1 5 5 3 2 7 5 20 1 9 5 10 7 13 10 16 9 13 12 3
17 16 18 20 20 19 20 20 20 18 17 16 17 18 17 18 11 8 5 7 5 3 3 2 3 1 1 1 4 6 2 2 6 5 21 8 6 6 8 13 11 13 12 21 10 16 7
16 17 16 19 21 20 20 21 21 21 17 15 18 18 16 16 12 7 5 4 1 2 2 2 1 2 1 3 8 6 1 1 5 5 9 10 5 4 10 13 14 14 11 13 13 11 10
20 18 16 19 21 20 20 22 23 21 18 16 18 17 16 15 9 6 4 1 2 1 2 0 1 1 1 6 5 4 2 1 5 5 5 8 1 8 16 15 5 14 10 11 9 8 12
23 18 16 19 22 21 21 21 23 23 17 17 17 17 15 14 6 2 3 3 3 3 2 1 2 4 4 2 2 1 4 0 4 7 9 3 2 9 10 10 11 14 13 13 8 12 12
22 17 16 18 22 21 21 21 23 22 18 17 16 16 14 8 2 3 3 4 3 3 1 1 0 1 2 1 1 4 2 4 1 8 7 7 3 13 13 13 13 14 16 12 10 10 11
22 16 16 17 22 21 20 20 23 22 18 17 16 15 10 1 2 3 1 4 5 4 2 3 1 1 2 1 2 4 6 2 1 7 9 5 8 12 11 15 14 13 10 13 11 12 5
22 17 16 17 22 20 19 20 22 21 18 16 16 12 2 4 6 4 1 4 3 3 1 1 1 1 1 3 1 3 2 3 3 4 4 3 10 12 16 15 10 5 12 10 9 10 4
22 19 16 16 20 19 18 20 21 18 16 16 13 4 5 7 6 5 5 3 3 2 4 1 0 2 0 4 3 2 2 3 2 6 6 5 14 4 9 5 3 13 13 9 5 3 6
22 20 17 15 18 17 17 19 19 18 15 14 5 5 8 8 5 5 5 1 1 3 1 2 2 1 3 1 3 4 1 2 2 5 3 5 6 1 4 10 10 9 17 5 4 5 5
20 23 18 15 16 16 16 17 17 15 13 10 5 7 9 9 8 5 2 1 3 1 2 5 3 5 2 3 1 1 4 1 1 3 3 3 4 5 3 5 7 15 10 3 6 5 5
18 23 18 16 15 14 15 16 14 12 10 4 8 9 7 6 6 2 1 0 2 3 2 4 8 4 3 3 3 3 2 4 1 1 2 3 3 2 6 2 2 4 6 2 4 1 2
20 21 18 16 14 12 14 14 12 10 7 2 10 8 5 5 5 2 1 1 1 2 1 2 1 1 4 6 5 3 4 4 4 2 1 2 5 1 4 1 4 2 9 3 0 5 4
21 21 17 15 13 11 12 12 10 9 4 6 11 5 5 5 5 1 1 1 1 4 4 2 1 4 2 2 3 4 3 1 3 3 6 2 2 4 8 3 8 4 4 1 1 2 2
26 20 18 15 13 10 10 10 8 7 1 10 8 2 7 7 3 1 1 1 1 3 3 2 1 2 4 3 1 1 2 1 14 7 6 3 4 4 2 1 1 1 3 11 6 5 0
29 20 18 15 12 9 9 9 6 4 3 11 7 4 7 7 2 2 1 1 1 2 2 2 1 1 1 4 2 2 3 2 10 7 5 5 3 6 4 3 2 5 8 4 3 2 7
28 21 18 15 12 9 9 7 5 2 4 11 6 3 3 4 3 2 2 1 2 1 1 1 1 3 5 4 1 4 3 2 6 2 3 3 3 3 6 2 4 7 14 14 10 5 11
30 22 19 15 12 9 7 5 3 0 5 9 4 2 4 3 3 2 1 1 2 2 2 2 1 3 1 3 4 5 2 4 3 4 1 3 1 1 1 2 2 3 9 16 14 18 15
31 22 20 15 12 9 6 5 2 1 7 7 5 5 4 3 2 3 1 2 2 1 2 1 3 3 1 2 2 4 6 4 2 4 3 1 2 1 2 2 4 7 11 13 18 20 21
33 24 21 16 13 8 5 5 2 4 8 5 6 10 7 1 3 3 2 2 3 1 1 5 2 1 5 4 5 4 1 2 2 4 4 2 4 3 1 1 3 9 18 17 11 12 14
31 26 22 17 12 9 6 6 4 6 5 4 9 12 5 3 3 2 3 1 3 2 1 4 5 1 3 4 1 3 5 5 5 5 2 5 4 2 1 3 5 1 1 2 13 13 14
33 28 22 19 14 11 9 8 7 9 7 6 10 6 5 4 5 4 3 2 1 0 0 2 2 4 5 1 2 3 2 2 2 3 1 2 4 3 3 5 8 5 2 3 5 4 4
35 29 24 21 16 13 11 9 8 9 8 8 8 10 6 9 3 6 4 1 2 2 1 2 3 5 1 1 2 3 2 0 3 3 1 1 1 4 3 3 4 2 2 3 2 4 3
34 27 25 23 18 15 13 10 9 9 9 8 8 12 8 8 5 6 2 2 3 3 1 2 6 3 3 2 3 3 4 0 3 3 4 4 3 8 7 5 6 5 6 4 4 3 2
35 31 28 23 19 17 15 13 11 12 11 9 10 13 9 8 10 7 4 3 4 2 2 1 2 1 2 4 3 3 4 4 3 2 3 6 5 4 5 5 7 8 6 5 1 1 4
39 31 29 24 20 19 17 15 12 14 12 10 12 16 18 9 11 9 5 2 1 2 4 2 2 2 2 2 0 1 2 2 4 3 3 4 4 2 6 4 2 11 8 9 8 6 5
Wind_Direction
341 343 336 334 337 342 341 340 338 339 342 343 329 331 333 336 325 334 352 358 356 359 13 31 43 51 177 223 258 290 309 289 203 192 186 211 182 183 195 196 188 219 189 198 158 147 120
335 341 334 331 333 336 339 341 338 331 341 338 328 326 329 332 323 318 329 340 335 360 17 31 50 74 72 250 303 314 319 317 172 192 193 200 183 184 195 194 192 187 163 197 165 146 126
327 335 334 328 328 332 335 336 337 334 336 341 332 329 325 325 327 309 308 307 324 328 349 45 50 41 54 345 347 323 327 240 183 185 177 201 183 190 167 167 183 179 123 196 185 178 182
310 327 330 325 325 329 330 332 334 332 329 334 330 328 327 324 334 313 267 304 289 286 246 275 357 24 276 351 15 25 22 270 199 156 215 274 216 169 180 142 168 162 194 189 185 180 150
304 314 325 322 321 325 327 332 332 328 334 327 327 325 324 320 323 307 256 304 284 264 230 241 325 14 227 279 355 346 124 140 267 244 220 261 169 209 160 165 161 185 185 207 172 202 159
304 306 316 320 319 321 325 330 331 330 324 332 324 321 321 317 318 309 255 317 286 242 229 256 276 182 139 319 319 319 21 25 196 217 196 208 182 187 180 177 181 175 199 181 192 189 192
286 291 309 318 318 319 322 327 331 330 328 330 322 324 316 319 331 299 233 148 121 183 198 195 133 36 355 311 312 305 60 95 156 242 173 174 160 182 177 189 191 146 158 175 160 170 198
276 280 301 314 317 316 320 326 331 330 327 324 324 323 323 325 324 239 191 192 195 168 140 173 289 279 289 302 299 245 356 194 177 196 163 152 161 204 156 160 164 175 175 178 159 177 207
269 274 291 311 314 314 319 326 330 330 325 325 326 328 328 332 301 152 183 203 200 145 198 100 311 300 266 61 310 292 309 119 177 167 239 135 146 172 173 179 167 173 186 171 161 153 200
257 269 285 308 310 313 318 326 328 331 326 326 328 332 325 20 114 131 195 166 162 160 193 46 86 46 324 293 177 254 190 232 84 156 202 160 153 169 177 174 168 170 195 170 151 169 211
255 270 277 304 307 310 317 324 328 331 328 328 332 328 316 148 123 95 140 168 165 166 53 23 9 331 1 318 337 208 184 88 153 146 181 118 151 176 196 172 189 130 166 190 189 203 216
251 264 273 299 303 306 316 324 329 333 334 333 336 339 133 128 115 116 117 134 114 226 55 142 21 119 68 357 15 336 71 91 128 84 64 98 119 183 183 132 186 143 136 106 113 199 238
243 266 270 292 299 304 315 324 328 338 339 341 6 102 116 112 131 129 143 148 213 26 138 133 123 175 125 36 73 344 29 97 131 154 102 110 120 342 234 133 145 184 152 126 181 208 232
246 254 265 281 292 302 312 322 330 341 341 351 109 113 117 93 119 133 168 238 80 327 196 127 135 130 121 151 78 229 142 72 23 55 113 136 155 151 200 162 183 185 177 196 194 197 190
242 245 263 276 285 297 310 321 334 339 341 4 137 118 106 113 132 169 240 33 105 208 161 142 150 182 175 224 205 196 205 135 298 34 127 152 85 168 231 53 213 186 204 23 94 48 221
237 242 257 268 278 292 307 322 336 337 338 184 155 129 126 150 156 173 256 71 125 212 192 231 122 14 125 136 164 232 201 144 129 202 274 133 112 252 134 212 66 224 145 171 303 171 216
234 243 251 260 271 285 306 321 333 339 334 174 167 137 138 152 173 177 7 221 189 200 213 212 149 120 112 137 165 179 150 164 131 225 229 195 102 141 149 233 201 156 189 126 140 330 265
231 237 246 251 264 279 302 316 329 332 308 170 176 141 158 159 221 250 210 181 159 152 183 232 299 66 141 194 232 188 144 82 176 204 170 184 124 123 103 86 359 199 224 222 233 192 196
226 231 239 243 256 270 294 310 323 315 206 176 161 118 166 175 249 188 168 179 241 161 183 174 160 291 138 153 160 286 114 120 183 202 175 190 133 132 135 193 212 228 209 215 232 22 204
220 225 233 238 245 261 284 300 309 323 192 178 166 133 144 187 266 285 146 103 131 100 93 284 13 191 167 134 73 151 141 120 174 261 188 186 169 225 198 110 139 200 213 210 200 215 241
216 217 224 231 236 253 278 286 293 271 181 177 165 130 156 168 196 185 194 92 126 97 5 30 113 39 259 137 137 134 140 138 131 145 75 334 46 79 7 90 166 244 224 212 212 227 237
215 210 217 223 228 247 263 265 276 223 175 182 163 151 131 103 127 175 340 104 102 63 323 51 97 29 252 73 26 157 155 186 173 148 149 96 118 100 288 220 245 262 243 230 231 239 252
210 207 209 214 222 234 234 244 203 144 171 185 173 147 134 139 156 189 143 136 118 309 106 45 338 113 78 37 348 323 307 102 136 185 157 172 152 166 229 262 257 266 243 225 225 231 238
206 201 201 205 217 223 213 212 170 136 140 176 174 151 146 129 183 146 152 134 122 43 355 340 10 354 31 322 220 13 70 92 114 88 148 159 160 175 202 197 241 35 61 255 237 262 253
206 199 196 201 203 217 202 193 160 148 146 130 154 152 139 116 121 140 154 126 108 25 206 297 18 3 332 120 188 175 151 192 79 36 165 232 176 171 232 220 298 262 190 189 206 281 251
204 199 191 200 197 203 193 180 157 149 145 130 131 144 124 128 155 124 144 149 149 151 193 259 303 327 354 261 221 207 209 82 193 182 48 158 244 229 170 246 259 76 106 179 197 267 153
200 199 192 196 195 193 181 172 152 152 150 138 133 143 119 105 147 130 130 146 136 124 148 342 346 346 9 164 198 210 218 226 235 221 177 183 201 222 223 240 271 250 190 162 241 56 292
200 190 191 191 192 181 171 167 150 157 150 138 129 144 125 102 131 133 123 134 140 153 154 52 183 89 278 208 208 180 219 196 234 252 202 202 198 203 208 225 258 155 123 218 52 288 291
191 185 187 189 183 175 167 162 154 159 147 136 125 134 121 103 126 118 97 87 119 143 123 70 99 55 44 286 343 328 200 202 232 229 182 235 226 237 227 237 341 195 238 227 262 262 278
Height
1556 1553 1551 1548 1545 1543 1540 1536 1533 1530 1526 1524 1521 1517 1514 1512 1510 1508 1505 1503 1501 1499 1498 1498 1497 1496 1497 1498 1496 1493 1491 1489 1491 1495 1498 1499 1500 1502 1502 1503 1507 1507 1509 1515 1517 1521 1523
1555 1551 1549 1546 1544 1541 1538 1534 1531 1528 1524 1522 1519 1515 1512 1510 1507 1506 1504 1502 1500 1500 1500 1499 1498 1497 1497 1497 1494 1492 1492 1490 1491 1494 1496 1497 1497 1501 1502 1501 1503 1507 1510 1513 1519 1521 1523
1553 1550 1547 1544 1542 1539 1536 1533 1529 1526 1523 1520 1517 1514 1510 1506 1505 1504 1502 1502 1500 1500 1500 1500 1499 1498 1497 1498 1495 1493 1492 1492 1491 1490 1495 1495 1495 1500 1498 1498 1503 1506 1512 1515 1518 1523 1524
1550 1548 1545 1542 1539 1536 1534 1530 1526 1524 1521 1518 1515 1512 1508 1504 1503 1501 1500 1500 1500 1500 1499 1499 1499 1499 1498 1496 1495 1494 1494 1493 1493 1493 1494 1495 1495 1498 1497 1501 1506 1506 1507 1519 1516 1522 1526
1547 1544 1543 1540 1537 1534 1531 1528 1525 1521 1518 1515 1513 1509 1506 1502 1499 1498 1498 1498 1498 1498 1499 1499 1499 1498 1498 1497 1496 1494 1495 1494 1494 1494 1495 1495 1494 1497 1499 1497 1503 1504 1500 1504 1514 1519 1525
1543 1541 1539 1537 1534 1531 1528 1525 1522 1518 1515 1512 1509 1506 1503 1499 1496 1497 1497 1496 1496 1498 1498 1498 1498 1500 1499 1498 1496 1494 1495 1494 1495 1495 1497 1497 1498 1495 1494 1492 1493 1498 1498 1506 1511 1519 1521
1539 1538 1536 1534 1531 1528 1525 1522 1519 1515 1511 1509 1505 1502 1499 1495 1494 1494 1495 1496 1500 1500 1499 1498 1497 1496 1497 1496 1495 1494 1496 1495 1495 1495 1496 1499 1498 1491 1488 1490 1488 1495 1505 1512 1511 1518 1518
1534 1533 1532 1530 1528 1524 1522 1519 1516 1512 1508 1505 1502 1499 1495 1492 1493 1492 1493 1493 1494 1497 1499 1497 1497 1496 1496 1495 1496 1495 1496 1496 1494 1495 1497 1498 1498 1498 1494 1495 1496 1498 1503 1506 1512 1514 1516
1529 1529 1528 1526 1524 1521 1518 1516 1513 1509 1505 1501 1498 1495 1492 1491 1490 1491 1492 1492 1493 1494 1497 1497 1496 1497 1496 1497 1496 1495 1496 1498 1496 1494 1497 1497 1498 1500 1497 1499 1497 1498 1500 1504 1505 1511 1515
1524 1523 1523 1522 1520 1517 1515 1512 1509 1505 1502 1498 1494 1492 1490 1489 1492 1492 1492 1491 1491 1492 1493 1498 1497 1497 1497 1496 1496 1494 1496 1497 1496 1497 1496 1497 1501 1501 1498 1497 1495 1504 1501 1503 1507 1508 1512
1518 1519 1519 1518 1516 1514 1511 1509 1505 1502 1499 1495 1491 1489 1488 1487 1490 1492 1492 1490 1491 1493 1477 1500 1498 1497 1496 1497 1497 1494 1494 1496 1495 1495 1495 1496 1500 1505 1500 1497 1497 1499 1505 1506 1507 1506 1509
1512 1513 1514 1513 1513 1510 1508 1505 1501 1498 1496 1492 1489 1486 1487 1488 1490 1492 1491 1491 1493 1494 1488 1497 1498 1497 1496 1496 1496 1495 1495 1497 1495 1494 1497 1498 1501 1506 1497 1501 1502 1503 1505 1511 1513 1514 1515
1507 1509 1509 1509 1509 1507 1504 1502 1498 1496 1493 1490 1487 1487 1488 1489 1491 1491 1491 1492 1490 1480 1496 1498 1498 1497 1497 1496 1496 1498 1494 1493 1491 1494 1496 1498 1504 1504 1503 1502 1505 1500 1499 1516 1523 1521 1508
1503 1503 1504 1504 1504 1503 1500 1498 1495 1493 1491 1489 1487 1488 1489 1489 1490 1491 1492 1493 1477 1487 1490 1491 1496 1498 1496 1498 1500 1500 1497 1495 1493 1492 1496 1494 1505 1507 1502 1502 1501 1497 1494 1498 1507 1507 1499
1497 1498 1500 1500 1500 1499 1497 1495 1492 1490 1489 1488 1488 1489 1490 1490 1491 1491 1493 1484 1483 1488 1489 1489 1495 1495 1497 1498 1497 1495 1495 1494 1494 1495 1493 1495 1501 1505 1504 1504 1503 1505 1504 1509 1510 1520 1505
1491 1492 1495 1496 1496 1495 1494 1492 1490 1488 1487 1487 1487 1489 1490 1490 1490 1491 1492 1485 1489 1491 1491 1489 1484 1487 1485 1491 1492 1497 1489 1492 1495 1497 1498 1494 1499 1505 1507 1508 1505 1500 1505 1508 1511 1511 1504
1485 1487 1489 1491 1492 1491 1490 1489 1487 1485 1484 1485 1487 1488 1490 1490 1490 1490 1486 1486 1488 1490 1491 1490 1486 1487 1489 1491 1490 1491 1490 1495 1495 1496 1497 1493 1490 1507 1504 1504 1497 1503 1502 1505 1503 1506 1496
1479 1482 1484 1486 1487 1488 1487 1486 1484 1483 1482 1484 1485 1487 1489 1490 1492 1490 1483 1485 1487 1487 1490 1489 1488 1486 1485 1487 1485 1486 1486 1491 1496 1495 1493 1492 1491 1500 1506 1505 1505 1503 1500 1496 1500 1507 1511
1472 1476 1479 1481 1483 1484 1483 1482 1481 1480 1480 1482 1484 1486 1489 1490 1486 1482 1484 1484 1486 1486 1486 1488 1487 1487 1485 1485 1487 1487 1487 1491 1494 1494 1491 1491 1493 1501 1509 1507 1506 1502 1500 1501 1503 1507 1507
1465 1470 1474 1477 1479 1480 1480 1479 1478 1478 1478 1480 1482 1484 1489 1489 1488 1485 1482 1484 1484 1486 1486 1486 1485 1483 1482 1483 1486 1487 1488 1491 1492 1493 1493 1494 1491 1487 1484 1487 1490 1500 1497 1498 1502 1504 1493
1459 1464 1469 1472 1475 1476 1476 1476 1475 1475 1475 1478 1478 1481 1481 1484 1485 1485 1486 1485 1483 1485 1486 1485 1482 1482 1481 1480 1482 1485 1488 1491 1492 1492 1491 1490 1493 1495 1491 1493 1497 1496 1494 1494 1500 1494 1489
1453 1458 1464 1467 1470 1472 1472 1472 1473 1472 1472 1474 1475 1477 1481 1484 1485 1485 1486 1485 1485 1487 1487 1483 1483 1484 1482 1481 1484 1483 1483 1485 1484 1491 1491 1493 1495 1499 1497 1496 1497 1496 1491 1489 1488 1487 1481
1446 1452 1458 1463 1466 1468 1469 1470 1470 1469 1469 1470 1472 1473 1476 1485 1484 1482 1484 1486 1488 1488 1488 1488 1488 1487 1487 1489 1489 1489 1488 1487 1487 1486 1489 1491 1493 1497 1492 1499 1497 1492 1478 1480 1478 1476 1476
1442 1447 1454 1459 1462 1464 1465 1467 1467 1467 1467 1468 1468 1470 1475 1481 1483 1483 1487 1488 1487 1489 1489 1489 1489 1488 1493 1490 1491 1491 1491 1490 1489 1490 1490 1491 1492 1494 1492 1499 1494 1473 1477 1477 1476 1473 1472
1436 1442 1450 1455 1458 1460 1462 1463 1464 1465 1466 1466 1467 1468 1470 1478 1483 1488 1488 1488 1488 1489 1490 1490 1491 1491 1490 1491 1490 1486 1488 1492 1492 1493 1492 1491 1490 1492 1491 1490 1477 1469 1478 1477 1477 1469 1469
1431 1437 1445 1451 1454 1457 1458 1461 1462 1462 1464 1465 1466 1466 1469 1474 1482 1486 1488 1489 1487 1488 1489 1490 1490 1490 1489 1490 1486 1486 1484 1487 1488 1492 1494 1494 1492 1487 1494 1490 1478 1470 1475 1476 1476 1468 1468
1426 1433 1441 1447 1451 1453 1455 1458 1459 1460 1462 1463 1465 1466 1468 1474 1483 1486 1488 1488 1489 1489 1489 1492 1492 1492 1490 1486 1486 1485 1484 1490 1484 1484 1487 1488 1488 1486 1483 1485 1475 1469 1473 1476 1473 1468 1467
1421 1429 1436 1443 1448 1451 1453 1456 1457 1459 1461 1463 1465 1466 1468 1474 1483 1485 1486 1488 1488 1488 1487 1492 1493 1493 1492 1486 1485 1482 1482 1484 1485 1484 1483 1480 1480 1481 1482 1482 1480 1470 1473 1472 1465 1465 1465
1416 1425 1434 1441 1445 1448 1451 1454 1456 1458 1460 1463 1464 1467 1469 1474 1483 1486 1488 1489 1489 1489 1490 1490 1494 1494 1495 1494 1491 1490 1484 1487 1481 1474 1483 1480 1475 1473 1475 1467 1465 1466 1464 1464 1464 1464 1463